Location: ?????
(44.6860°N, 135.5247°E)
Time: 21:37:09
(UTC+00:00)

Daily predictions for brighter satellites

Satellite Brightness Start Highest point End
(mag) Time Altitude Azimuth Time Altitude Azimuth Time Altitude Azimuth
USA 234 3.6 19:07:47 10° NE 19:12:53 56° NNE 19:12:53 56° NNE
CENTAUR R/B 3.8 19:21:53 34° NNW 19:25:32 53° NE 19:34:32 10° ESE
ATLAS 3B R/B 3.0 19:29:36 60° NNW 19:29:36 60° NNW 19:36:29 10° NE
Cosmos 2263 Rocket 2.5 19:42:40 56° NNE 19:42:40 56° NNE 19:47:02 10° NNE
Cosmos 968 Rocket 3.7 19:45:08 66° NE 19:45:08 66° NE 19:49:46 10° NNE
USA 229 DEB 3.3 19:44:56 77° NNW 19:44:56 77° NNW 19:51:28 10° NE
USA 229 3.3 19:44:59 78° NNW 19:44:59 78° NNW 19:51:35 10° NE
SL-16 R/B 2.9 19:47:09 42° S 19:47:09 42° S 19:50:52 10° SSE
IRAS Rocket 4.4 19:45:12 10° NNE 19:50:48 72° ESE 19:56:20 10° S
Cosmos 1241 Rocket 4.4 19:50:48 65° NW 19:51:53 86° WSW 19:58:26 10° SSE
COSMO-SKYMED 1 3.1 19:48:09 10° SSE 19:52:18 56° ENE 19:52:18 56° ENE
ARGOS 3.8 19:52:20 10° N 19:55:48 41° N 19:55:48 41° N
Cosmos 371 Rocket 4.5 19:54:53 10° S 19:59:25 42° ESE 20:04:00 10° NE
Cosmos 2297 Rocket 4.3 20:09:45 12° N 20:09:45 12° N 20:10:24 10° N
Cosmos 1850 Rocket 4.2 20:09:04 51° NNW 20:09:04 51° NNW 20:13:13 10° NNE
SJ 16-02 3.5 20:12:38 15° N 20:12:38 15° N 20:13:30 10° N
ADEOS Rocket 3.9 20:03:31 10° NNE 20:09:23 50° E 20:15:51 10° S
Cosmos 1844 Rocket 4.3 20:06:13 10° SSE 20:11:11 34° ESE 20:16:10 10° NE
Cosmos 2227 Rocket 3.7 20:17:51 20° NNW 20:17:51 20° NNW 20:20:19 10° N
ASTEX 1 3.4 20:15:44 10° N 20:20:39 79° E 20:25:34 10° S
Cosmos 1825 3.9 20:19:15 16° NNE 20:20:49 25° ENE 20:23:21 10° SE
SL-8 R/B 3.9 20:26:37 49° NW 20:27:38 61° NNE 20:32:23 10° E
ARIANE 5 R/B 3.3 20:25:53 10° NNE 20:30:52 52° E 20:35:45 10° S
Cosmos 44 2.9 20:33:58 46° NW 20:35:12 82° WSW 20:39:37 10° SSE
Cosmos 1470 Rocket 3.4 20:31:08 10° SSW 20:35:34 72° W 20:40:01 10° N
Cosmos 2219 3.8 20:37:43 33° NW 20:37:45 33° NW 20:42:49 10° N
Cosmos 1300 2.1 20:35:22 10° SSW 20:38:41 78° W 20:42:04 10° N
Thor Agena Rocket 3.9 20:34:26 10° N 20:39:16 41° WNW 20:41:39 26° WSW
SKYMED 2 3.8 20:36:17 10° S 20:40:26 45° W 20:40:52 43° W
NOSS 3-2 (A) 4.3 20:34:51 17° NNW 20:40:55 75° NE 20:49:49 10° SE
Cosmos 1892 3.2 20:45:27 10° N 20:48:40 49° E 20:51:52 10° SSE
Cosmos 1933 Rocket 3.6 20:45:43 10° S 20:50:02 79° E 20:54:24 10° N
Cosmos 1869 Rocket 4.4 20:48:37 10° S 20:52:47 51° E 20:57:01 10° NNE
Meteor 2-10 Rocket 3.5 20:47:35 10° S 20:52:49 89° W 20:58:20 10° N
Meteor 1-22 Rocket 4.4 20:50:10 10° S 20:56:01 77° E 21:01:39 10° NNE
Cosmos 304 Rocket 3.7 20:51:47 10° SSW 20:56:29 62° WNW 21:01:15 10° NNE
USA 234 4.0 20:50:55 10° NE 20:56:45 36° NNW 21:00:14 21° WNW
Cosmos 1844 4.0 20:51:20 10° SSW 20:56:58 70° ESE 21:02:44 10° NNE
Cosmos 2082 4.4 20:55:06 25° W 20:57:07 32° NW 21:02:10 10° N
Cosmos 1703 Rocket 3.4 20:56:25 10° NNW 21:00:46 66° W 21:05:03 10° S
Aureole 3 Rocket 4.2 20:52:52 10° SSW 21:01:00 64° W 21:06:55 10° N
Nadezhda 4 Rocket 4.1 20:56:19 10° NNW 21:02:23 55° W 21:08:30 10° SSW
NOAA 12 4.4 20:58:57 10° N 21:03:50 41° WNW 21:08:42 10° SW
Meteor 1-24 Rocket 4.0 20:58:28 10° N 21:04:27 76° ENE 21:10:12 10° SSE
Cosmos 1634 Rocket 4.4 20:59:01 10° S 21:05:13 68° E 21:11:30 10° NNE
Cosmos 2195 Rocket 4.4 21:00:48 10° N 21:06:55 78° W 21:13:01 10° S
IRS-P3 4.2 21:01:46 10° NNE 21:07:09 82° ESE 21:12:29 10° SSW
Cosmos 1703 3.4 21:05:32 24° NW 21:07:09 38° W 21:10:27 10° SSW
Gbstr 26 Del rocket 4.3 21:00:02 10° WSW 21:07:54 89° SSE 21:14:49 10° ENE
USA 290 2.9 21:05:52 10° S 21:08:57 56° ESE 21:12:05 10° NNE
IRS-1C 4.0 21:05:22 10° N 21:10:41 71° WNW 21:15:58 10° SSW
Cosmos 1943 3.6 21:08:41 16° NW 21:12:49 41° WSW 21:18:01 10° S
Cosmos 1455 1.9 21:11:00 10° S 21:14:09 72° E 21:17:21 10° NNE
Okean 1-7 4.0 21:13:41 20° WNW 21:15:04 24° W 21:18:26 10° SW
Meteor 2-5 Rocket 3.9 21:09:16 10° N 21:15:16 89° E 21:21:10 10° S
CENTAUR R/B 3.6 21:09:01 13° NW 21:16:31 53° WSW 21:25:30 10° S
ATLAS 3B R/B 4.1 21:16:52 16° WNW 21:21:05 25° NNW 21:27:20 10° NNE
Cosmos 1437 Rocket 2.9 21:19:48 10° NNW 21:23:10 41° W 21:26:30 10° SSW
SMAP 3.2 21:18:29 10° NNE 21:23:11 80° ESE 21:27:50 10° S
CZ-2D R/B 3.3 21:19:58 10° NNE 21:24:03 89° W 21:27:58 10° SSW
Cosmos 2285 Rocket 4.1 21:18:06 10° SW 21:24:19 53° WNW 21:30:39 10° NNE
Cosmos 1833 Rocket 4.5 21:20:19 10° N 21:25:07 28° NE 21:29:53 10° ESE
Cosmos 405 Rocket 3.4 21:22:18 10° SW 21:25:16 26° WNW 21:28:18 10° NNW
SL-08 R/B 3.4 21:20:48 10° SSE 21:25:36 89° WSW 21:30:32 10° NNW
Cosmos 2263 Rocket 3.6 21:24:23 15° WNW 21:26:09 17° NW 21:29:47 10° N
TRACE 4.1 21:24:40 10° S 21:27:46 65° WSW 21:30:52 10° NNW
COSMO-SKYMED 1 4.2 21:26:27 10° SW 21:28:53 15° W 21:29:31 14° W
Helios 1A 4.0 21:25:56 10° SE 21:29:44 44° ENE 21:33:34 10° N
SJ-6F 4.4 21:26:34 10° N 21:30:38 64° WNW 21:34:41 10° SSW
IGS 5A 3.9 21:28:19 10° NNE 21:32:19 64° E 21:36:18 10° S
Cosmos 1758 3.7 21:29:27 10° SW 21:32:53 34° WNW 21:36:23 10° N
Cosmos 482 Debris 3.3 21:36:09 15° WNW 21:38:10 88° NE 21:41:19 10° ESE
Cosmos 807 4.3 21:36:20 10° NNW 21:39:14 50° W 21:42:26 10° S
Cosmos 371 Rocket 4.3 21:35:51 10° WSW 21:39:50 25° WNW 21:43:52 10° N
Cosmos 2034 Rocket 4.5 21:34:17 10° SW 21:39:59 37° WNW 21:45:41 10° N
SL-19 R/B 4.1 21:34:53 10° NNE 21:40:11 88° WNW 21:45:23 10° SSW
USA 281 4.1 21:34:00 10° SE 21:40:13 48° ENE 21:46:28 10° NNW
Cosmos 1733 Rocket 3.5 21:38:07 10° S 21:42:22 66° E 21:46:40 10° NNE
AQUARIUS 4.2 21:38:21 10° NNE 21:42:49 87° ESE 21:47:14 10° SSW
Cosmos 2242 Rocket 3.6 21:41:11 10° NNW 21:45:44 76° W 21:50:13 10° S
CZ-2D R/B 4.1 21:43:29 10° NNW 21:46:13 23° WNW 21:48:58 10° WSW
NOSS 3-2 (C) 4.2 21:39:04 10° NW 21:46:37 87° NE 21:55:35 10° SE
Cosmos 1092 Rocket 4.3 21:42:30 10° NNW 21:48:31 48° W 21:54:33 10° SSW
ACS3 Solar Sail 3.2 21:45:04 10° NNE 21:50:59 44° E 21:56:45 10° SSE
Cosmos 1825 3.5 21:51:52 10° WNW 21:53:23 13° W 21:54:53 10° WSW
BREEZE M DEB (TANK) 1.6 21:51:37 10° WNW 21:54:02 47° NNE 21:56:07 10° E
Cosmos 1603 4.5 21:49:06 10° NW 21:54:13 34° WSW 21:59:19 10° SSW
ADEOS Rocket 3.8 21:49:37 10° N 21:54:42 30° WNW 22:00:12 10° WSW
Cosmos 1844 Rocket 3.1 21:49:45 10° SW 21:54:58 39° NW 22:00:12 10° NNE
ATLAS CENTAUR R/B 4.4 21:53:38 10° SSE 21:56:14 19° ESE 21:58:55 10° ENE
